Regional Weather Roundup
Issued by NWS Sioux Falls, SD

Home | Current Version | Previous Version | Graphics & Text | Print | Product List | Glossary Off
Versions: 1 2 3 4 5 6 7 8 9 10 11 12 13 14 15 16 17 18 19 20 21 22 23 24 25 26 27 28 29 30 31 32 33 34 35 36 37 38 39 40 41 42 43 44 45 46 47 48 49 50

000
ASUS43 KFSD 300710
RWRFSD

WEATHER ROUNDUP FOR SE SOUTH DAKOTA/SW MINNESOTA/NW IOWA
NATIONAL WEATHER SERVICE SIOUX FALLS SD
200 AM CDT SAT AUG 30 2014

NOTE: "FAIR" INDICATES FEW OR NO CLOUDS BELOW 12,000 FEET WITH NO
SIGNIFICANT WEATHER AND OR OBSTRUCTIONS TO VISIBILITY.


SDZ038>040-050-052>070-300800-
SOUTHEAST SOUTH DAKOTA

CITY           SKY/WX    TMP DP  RH WIND       PRES   REMARKS
CHAMBERLAIN    CLEAR     60  57  91 N6        29.95S
HURON          CLOUDY    61  59  93 N10       29.90S
MADISON        CLOUDY    64  64 100 N10       29.88R
MITCHELL       CLOUDY    63  60  90 N14G21    29.90R
SIOUX FALLS    PTCLDY    67  64  90 NW10      29.85R THUNDER
WINNER         FAIR      57  55  93 NW7       29.97R
YANKTON        PTCLDY    64  63  94 MISG      29.87S
$$

MNZ071-072-080-081-089-090-097-098-300800-
SOUTHWEST MINNESOTA

CITY           SKY/WX    TMP DP  RH WIND       PRES   REMARKS
FAIRMONT       CLOUDY    63  61  94 NW5       29.80S
JACKSON        MOCLDY    64  61  88 W3        29.82S
LUVERNE        CLEAR     63  61  94 CALM      29.84S
MARSHALL       PTCLDY    64  63  94 NW10      29.82R
MONTEVIDEO     MOCLDY    64  64 100 N10       29.83S
PIPESTONE      MOCLDY    66  64  94 NW5       29.85S FOG
REDWOOD FALLS  PTCLDY    66  65  96 NW6       29.80S
TRACY          PTCLDY    66  65  97 CALM      29.83S FOG
WINDOM         MOCLDY    64  64 100 W5        29.82S
WORTHINGTON    PTCLDY    64  63  94 NW5       29.84S
$$

IAZ001>003-012>014-020>022-031-032-NEZ013-014-SDZ071-300800-
NORTHWEST IOWA

CITY           SKY/WX    TMP DP  RH WIND       PRES   REMARKS
CHEROKEE       CLOUDY    64  64 100 CALM      29.84R
DENISON        MOCLDY    63  63 100 CALM      29.82S FOG
ESTHERVILLE    MOCLDY    65  65 100 CALM      29.81S FOG
LE MARS          N/A     66  64  94 CALM      29.84S
ORANGE CITY    CLEAR     64  61  88 NW6       29.84S FOG
SHELDON        CLOUDY    63  63 100 NW5       29.83S FOG
SIOUX CITY     PTCLDY    64  63  96 W6        29.85
SPENCER        PTCLDY    62  60  93 W9        29.82R FOG
STORM LAKE     CLOUDY    66  66 100 W8        29.83S FOG
$$

ABBREVIATIONS USED IN REMARKS
   TC - TEMPERATURE IN CELSIUS
  WCI - WIND CHILL INDEX
   HX - HEAT INDEX
  VSB - VISIBILITY



USA.gov is the U.S. government's official web portal to all federal, state and local government web resources and services.